User: anonymous   Login
Location: Unspecified
(0.0000°N, 0.0000°E)
Time: 04:43:34
(UTC+00:00)
Language:

TOPO 1 - Orbit

View from above orbital plane
View from above orbital plane
View from above satellite
View from above satellite

Ground track
Ground track

The orbit data is extracted from the following two-line orbital elements,

1 04363U 70025B   18116.70096323 -.00000051  00000-0 -95334-5 0  9994
2 04363 100.0157  15.8227 0002686  76.6175 308.8055 13.46568740361442
Epoch (UTC): 26 April 2018 16:49:23
Eccentricity: 0.0002686
inclination: 100.0157°
perigee height: 1083 km
apogee height: 1087 km
right ascension of ascending node: 15.8227°
argument of perigee: 76.6175°
revolutions per day: 13.46568740
mean anomaly at epoch: 308.8055°
orbit number at epoch: 36144

The dashed part of the orbit path shows where the satellite is in the earth's shadow,  

DLR